Regional Weather Roundup
Issued by NWS Albany, NY

Home | Current Version | Previous Version | Text Only | Print | Product List | Glossary On
Versions: 1 2 3 4 5 6 7 8 9 10 11 12 13 14 15 16 17 18 19 20 21 22 23 24 25 26 27
000
ASUS41 KALY 241410
RWRALY

NEW YORK STATE HOURLY WEATHER ROUNDUP
NATIONAL WEATHER SERVICE ALBANY NY
1000 AM EDT SUN JUL 24 2016

NOTE: "FAIR" INDICATES FEW OR NO CLOUDS BELOW 12,000 FEET WITH NO
SIGNIFICANT WEATHER AND/OR NO OBSTRUCTIONS TO VISIBILITY.

NYZ032-033-038>043-046>054-057>066-NYZ062>081-082-084-241500-
EAST


CITY           SKY/WX    TMP DP  RH WIND       PRES   REMARKS
ALBANY         PTSUNNY   72  63  73 NE7       30.02S
GLENS FALLS    PTSUNNY   69  62  78 E3        30.02S
POUGHKEEPSIE   MOSUNNY   80  63  55 W3        29.98F
NEWBURGH       SUNNY     77  64  65 CALM      30.02F
MONTGOMERY     SUNNY     81  63  54 VRB3      30.00F
WHITE PLAINS   MOSUNNY   81  61  50 W7        30.00R
ISLIP          PTSUNNY   82  62  50 NE6       29.98R
NEW YORK CITY  MOSUNNY   84  61  45 NW7       29.98S
CENTRAL PARK   MOSUNNY   81  62  52 W7        30.02R
$$

NYZ005>009-017-018-044>046-055-056-241500-
CENTRAL


CITY           SKY/WX    TMP DP  RH WIND       PRES   REMARKS
FULTON         PTSUNNY   80  62  54 VRB3      30.03F
SYRACUSE       CLOUDY    77  64  64 CALM      30.02F
ROME           MOSUNNY   73  65  75 NW3       30.04F
ELMIRA         SUNNY     79  59  50 NE3       30.04F
BINGHAMTON     SUNNY     76  58  53 CALM      30.07S
MONTICELLO     SUNNY     77  61  57 W3        30.07S
$$

NYZ026>034-041>043-087-241500-
NORTH


CITY           SKY/WX    TMP DP  RH WIND       PRES   REMARKS
WATERTOWN      PTSUNNY   75  55  49 N8        30.04S
FORT DRUM      NOT AVBL
MASSENA        CLOUDY    70  53  54 N5        30.06S
SARANAC LAKE   SUNNY     67  49  52 W6        30.06R
PLATTSBURGH    MOSUNNY   69  54  58 N6        30.03S
$$

NYZ001>004-010>016-019>021-085-241500-
WEST


CITY           SKY/WX    TMP DP  RH WIND       PRES   REMARKS
NIAGARA FALLS  CLOUDY    83  60  45 SE6       30.01R
BUFFALO        MOSUNNY   80  60  50 E5        30.01S
DUNKIRK        SUNNY     81  65  58 CALM      30.01R
JAMESTOWN      SUNNY     75  63  64 S6        30.06S
WELLSVILLE     SUNNY     76  60  57 SE3       30.10S
ROCHESTER      PTSUNNY   79  64  60 SE7       30.03F
PENN YAN       PTSUNNY   78  63  59 CALM      30.05F
$$

             KEY
       WCI = WIND CHILL INDEX
       VSB = VISIBILITY
       HX  = HEAT INDEX
$$




USA.gov is the U.S. government's official web portal to all federal, state and local government web resources and services.